Temp
14 15 15 15 14 15 15 15 15 14 14 14 14 14 16 16 14 14 16 18 18 19 20 19 19 19 18 18 17 17 16 16 15 14 14 14 15 15 15 15 15 15 15 15
13 14 14 14 14 14 14 15 15 14 13 14 13 15 17 17 15 15 16 18 20 20 20 20 19 19 18 18 18 17 17 16 16 15 15 15 15 15 15 15 15 16 16 16
14 16 14 15 15 15 15 15 14 14 13 13 12 15 15 15 13 15 15 17 19 21 22 21 20 20 19 19 18 18 17 17 16 16 15 15 14 15 15 16 17 17 16 16
13 14 15 15 15 15 15 14 14 14 14 15 13 17 15 14 15 14 17 17 19 20 21 22 21 21 20 20 19 18 18 17 17 17 16 15 16 17 17 17 16 16 17 17
15 15 15 15 15 14 15 14 13 13 13 13 13 14 17 14 19 19 17 19 20 21 20 21 22 22 21 21 20 19 18 18 17 17 16 16 16 17 16 16 16 17 17 17
13 14 15 15 14 14 13 14 11 9 11 14 12 14 17 19 18 17 17 16 18 19 20 21 21 21 21 21 20 20 19 19 18 17 17 17 17 17 17 16 17 17 17 17
12 13 13 15 15 14 13 13 14 16 15 16 12 13 17 16 16 15 15 14 17 19 19 20 20 22 21 21 21 20 19 19 18 18 17 17 18 17 17 17 17 17 18 18
13 15 14 14 15 15 13 13 13 16 15 14 11 14 20 15 16 16 15 16 19 20 20 20 20 21 22 22 21 21 20 20 19 18 18 18 18 18 18 18 18 18 18 18
12 14 13 13 13 14 13 13 12 12 9 12 13 14 16 16 16 14 14 17 19 19 20 21 20 20 21 21 22 21 21 20 20 19 19 19 18 18 19 19 18 18 18 18
13 13 12 13 13 12 13 12 14 11 15 15 14 13 16 17 17 14 14 14 18 19 20 20 20 21 20 21 21 21 21 21 21 20 20 19 19 19 19 19 19 18 18 18
12 12 13 13 12 12 12 12 10 11 11 15 14 17 13 16 17 14 13 16 18 19 19 20 21 21 21 21 21 21 21 21 21 21 20 20 20 19 19 19 19 19 18 18
12 10 12 13 11 11 11 12 12 13 13 9 11 13 14 13 13 14 16 16 18 19 19 20 20 20 21 21 21 21 21 21 21 21 21 20 20 19 19 19 19 19 19 18
12 10 11 13 12 11 12 11 10 9 9 10 13 15 14 13 16 19 16 17 17 17 19 19 20 20 20 21 21 21 21 22 22 21 21 20 20 20 20 20 20 19 19 19
11 9 11 12 13 12 12 11 9 11 11 13 13 16 17 16 15 16 17 17 17 18 18 19 19 20 20 20 21 21 21 21 21 21 21 21 20 20 21 20 20 20 19 19
6 8 9 9 9 10 11 11 10 9 12 12 15 14 16 15 14 16 16 16 17 17 18 18 17 18 19 20 20 21 21 21 21 21 21 21 21 21 20 20 20 20 19 19
6 7 6 7 9 9 9 10 10 10 11 11 11 12 15 15 15 14 15 15 16 16 15 16 17 18 19 19 20 20 21 22 21 21 21 21 21 21 21 20 20 20 20 20
5 7 7 8 7 9 10 12 12 12 10 12 13 14 14 11 11 12 13 12 10 11 11 13 14 16 18 18 18 19 20 21 21 21 22 21 21 21 21 21 20 20 20 20
6 6 7 8 9 8 11 10 11 11 10 9 9 8 8 8 9 11 9 9 9 10 11 13 14 15 16 18 18 18 19 20 20 20 20 21 21 21 21 21 21 21 20 20
6 6 6 8 9 10 11 12 12 11 9 6 7 7 7 7 9 11 9 9 9 9 11 11 12 14 16 17 17 18 19 19 19 20 21 21 21 21 21 21 21 21 20 20
5 5 6 6 7 8 10 8 7 12 9 6 6 6 6 7 7 8 9 9 10 11 10 11 12 14 15 16 17 18 17 18 19 19 20 20 20 20 20 20 20 20 20 20
5 5 5 6 6 8 4 4 10 10 7 5 6 6 6 6 7 7 7 7 8 10 11 11 12 12 13 15 16 17 18 17 17 18 19 20 20 20 19 19 19 19 18 18
4 4 3 4 5 6 4 5 6 5 6 5 6 6 6 6 6 6 7 8 8 9 10 11 11 12 13 13 14 16 17 17 17 17 18 18 19 19 19 19 19 18 18 17
3 4 3 4 6 7 6 6 6 7 6 6 6 5 7 6 6 6 6 6 7 9 10 11 10 12 13 13 13 14 16 17 17 18 17 18 18 18 18 19 19 18 18 17
2 4 3 3 5 5 6 6 5 5 6 6 5 5 5 6 5 5 5 6 6 6 9 10 11 11 13 13 13 13 14 16 17 17 18 18 18 18 18 18 17 17 17 17
2 3 2 3 4 4 4 4 5 5 5 5 5 5 5 5 5 5 5 5 5 6 6 9 11 11 12 13 13 13 14 14 16 17 17 17 17 17 17 17 17 17 16 16
2 2 2 2 4 4 4 4 4 4 4 4 4 4 4 4 4 5 5 5 5 5 5 5 7 10 11 12 13 13 13 14 14 15 16 16 16 17 17 17 17 17 17 16
Height
1534 1537 1539 1535 1536 1536 1537 1540 1541 1533 1526 1526 1520 1512 1497 1492 1497 1495 1493 1494 1495 1497 1503 1507 1511 1515 1518 1521 1524 1527 1530 1534 1537 1539 1541 1543 1545 1549 1551 1553 1555 1556 1558 1559
1538 1540 1533 1533 1534 1535 1538 1538 1536 1529 1526 1526 1518 1502 1486 1482 1482 1482 1483 1484 1486 1491 1495 1499 1503 1507 1510 1515 1518 1521 1524 1528 1531 1534 1538 1541 1543 1545 1547 1549 1550 1552 1554 1556
1539 1533 1531 1532 1533 1535 1535 1536 1535 1534 1528 1524 1521 1496 1484 1479 1479 1477 1476 1477 1480 1482 1487 1492 1495 1498 1504 1507 1511 1515 1519 1523 1526 1530 1533 1535 1538 1540 1542 1544 1546 1549 1551 1552
1536 1531 1531 1531 1532 1533 1537 1530 1531 1532 1533 1532 1526 1519 1493 1486 1479 1475 1472 1472 1471 1474 1479 1484 1488 1491 1495 1499 1506 1510 1514 1517 1521 1525 1528 1530 1532 1535 1538 1541 1544 1545 1547 1549
1532 1529 1530 1531 1529 1529 1533 1530 1533 1533 1537 1537 1533 1533 1492 1488 1477 1473 1471 1470 1469 1470 1472 1476 1480 1485 1489 1495 1500 1504 1508 1512 1515 1519 1522 1525 1527 1531 1534 1537 1539 1541 1543 1545
1530 1528 1527 1525 1526 1527 1529 1530 1537 1541 1541 1537 1536 1534 1501 1489 1487 1478 1472 1470 1467 1467 1467 1470 1476 1481 1486 1491 1495 1499 1502 1506 1510 1513 1516 1518 1522 1525 1529 1531 1534 1537 1539 1541
1532 1528 1525 1524 1527 1528 1530 1537 1543 1535 1535 1530 1536 1536 1500 1491 1488 1485 1478 1470 1465 1465 1465 1465 1467 1472 1479 1484 1488 1493 1497 1500 1503 1506 1510 1513 1516 1520 1523 1527 1529 1532 1535 1537
1540 1533 1526 1525 1526 1529 1533 1536 1546 1542 1542 1539 1539 1526 1493 1493 1489 1485 1479 1474 1471 1469 1466 1462 1463 1468 1474 1479 1483 1487 1491 1494 1497 1501 1504 1508 1511 1514 1517 1521 1524 1527 1530 1533
1540 1534 1526 1526 1526 1528 1536 1538 1538 1546 1557 1549 1531 1512 1493 1490 1486 1482 1477 1473 1472 1471 1468 1465 1462 1465 1469 1474 1477 1481 1485 1488 1491 1494 1498 1501 1505 1507 1510 1515 1518 1521 1524 1527
1530 1537 1529 1527 1527 1529 1529 1533 1539 1546 1542 1541 1531 1528 1504 1490 1484 1480 1476 1474 1473 1471 1470 1469 1467 1466 1467 1469 1472 1475 1479 1481 1485 1488 1491 1494 1498 1501 1505 1509 1511 1514 1519 1521
1531 1534 1532 1528 1529 1530 1535 1535 1542 1542 1545 1536 1538 1510 1494 1489 1484 1483 1480 1477 1475 1472 1470 1471 1469 1467 1467 1466 1467 1469 1471 1474 1477 1480 1484 1487 1490 1494 1498 1501 1504 1508 1512 1514
1530 1537 1538 1529 1526 1526 1527 1528 1531 1537 1538 1549 1545 1523 1487 1486 1486 1483 1478 1475 1474 1472 1469 1467 1467 1465 1464 1462 1462 1463 1465 1466 1469 1473 1477 1480 1484 1487 1490 1492 1496 1501 1504 1507
1531 1537 1541 1527 1528 1527 1527 1528 1530 1535 1538 1539 1535 1512 1485 1485 1480 1478 1479 1472 1473 1471 1466 1463 1461 1460 1458 1458 1457 1457 1457 1459 1463 1465 1468 1472 1475 1478 1481 1484 1489 1493 1496 1499
1531 1537 1534 1534 1528 1529 1528 1526 1529 1528 1533 1521 1517 1498 1492 1487 1485 1479 1476 1473 1470 1467 1465 1460 1456 1453 1452 1452 1451 1451 1451 1452 1454 1457 1460 1463 1466 1469 1473 1477 1480 1484 1488 1491
1542 1541 1537 1534 1531 1529 1524 1522 1523 1527 1519 1518 1502 1501 1490 1490 1485 1482 1478 1475 1471 1466 1462 1459 1453 1448 1445 1444 1444 1444 1444 1445 1447 1449 1451 1454 1458 1462 1465 1467 1471 1475 1478 1481
1547 1545 1544 1537 1527 1527 1522 1518 1517 1514 1511 1509 1506 1494 1489 1486 1483 1480 1478 1474 1470 1466 1462 1457 1451 1445 1439 1437 1437 1436 1437 1438 1439 1440 1442 1446 1448 1452 1454 1458 1461 1464 1467 1471
1549 1544 1542 1533 1531 1523 1509 1495 1496 1494 1498 1494 1495 1488 1485 1488 1486 1481 1476 1478 1474 1468 1463 1455 1448 1441 1436 1432 1431 1430 1430 1430 1429 1430 1434 1435 1438 1441 1445 1449 1450 1453 1456 1459
1541 1542 1541 1530 1531 1525 1490 1488 1491 1495 1496 1497 1496 1500 1498 1496 1486 1480 1481 1477 1471 1466 1460 1453 1446 1439 1434 1429 1425 1423 1422 1422 1422 1421 1423 1425 1427 1430 1434 1435 1437 1442 1445 1446
1533 1536 1537 1528 1521 1499 1488 1484 1489 1492 1498 1505 1500 1498 1497 1492 1484 1477 1476 1476 1472 1467 1462 1456 1449 1441 1433 1430 1423 1418 1417 1416 1415 1415 1415 1416 1416 1418 1420 1421 1426 1430 1432 1435
1529 1534 1533 1527 1519 1507 1482 1482 1485 1482 1489 1503 1501 1499 1498 1492 1489 1481 1477 1473 1465 1461 1458 1452 1445 1439 1433 1427 1423 1418 1414 1411 1409 1409 1409 1409 1409 1410 1411 1414 1416 1419 1421 1424
1530 1532 1528 1520 1517 1495 1494 1487 1479 1489 1502 1498 1498 1497 1495 1494 1492 1482 1473 1469 1467 1459 1451 1447 1442 1437 1432 1426 1420 1417 1413 1409 1406 1403 1401 1400 1401 1401 1402 1404 1406 1409 1411 1414
1533 1534 1533 1525 1519 1502 1493 1490 1497 1503 1498 1497 1491 1489 1487 1484 1479 1476 1470 1464 1459 1454 1447 1441 1437 1431 1428 1426 1419 1414 1411 1407 1403 1399 1397 1394 1393 1392 1393 1394 1396 1398 1400 1402
1535 1528 1526 1521 1500 1486 1487 1496 1498 1496 1492 1487 1487 1482 1479 1474 1471 1468 1462 1457 1453 1449 1444 1439 1435 1428 1423 1423 1419 1412 1407 1404 1400 1397 1394 1391 1388 1387 1385 1385 1386 1387 1389 1389
1523 1520 1517 1517 1495 1495 1492 1488 1486 1488 1487 1483 1482 1478 1475 1466 1461 1457 1455 1449 1443 1440 1437 1435 1429 1424 1417 1415 1414 1410 1405 1401 1396 1393 1391 1388 1386 1383 1381 1379 1379 1378 1379 1379
1517 1514 1507 1502 1493 1493 1485 1480 1479 1477 1477 1476 1473 1470 1465 1459 1452 1449 1445 1442 1436 1429 1427 1427 1423 1418 1413 1409 1405 1404 1401 1396 1392 1389 1387 1385 1383 1380 1378 1376 1374 1373 1373 1374
1500 1496 1500 1489 1481 1484 1478 1474 1470 1467 1465 1462 1461 1458 1455 1451 1443 1441 1435 1432 1429 1425 1422 1417 1414 1410 1406 1402 1398 1396 1396 1392 1387 1382 1381 1380 1378 1376 1374 1372 1370 1368 1367 1366
Wind_Speed
4 3 4 5 4 2 2 2 4 5 4 3 6 14 21 25 19 24 31 33 33 31 27 30 31 30 29 28 27 27 27 26 26 26 25 23 21 18 17 16 14 14 12 11
4 3 3 2 2 3 3 2 5 6 3 3 7 21 21 17 14 23 29 33 33 30 28 30 32 33 34 31 30 30 29 29 28 27 24 22 18 18 17 17 17 16 15 13
4 2 1 1 2 2 3 4 3 5 6 1 9 9 5 3 4 10 21 28 29 33 32 30 34 36 35 36 34 32 30 29 29 27 26 26 24 23 22 20 18 15 14 14
4 3 2 1 3 5 3 3 2 4 4 3 6 6 6 5 9 4 11 16 27 31 32 33 32 35 37 37 33 31 30 30 30 29 30 29 27 24 20 16 15 17 17 15
5 1 1 1 4 4 5 3 2 2 1 2 3 1 8 5 6 10 10 15 10 18 29 32 34 32 32 33 33 32 31 31 31 31 31 30 29 26 20 19 19 19 18 16
6 2 3 5 2 2 2 0 4 3 1 1 2 1 5 3 5 10 17 23 17 11 12 25 30 31 30 28 31 32 32 33 34 33 32 32 30 27 25 25 24 22 20 18
5 2 3 1 2 2 5 5 4 3 2 3 0 0 9 7 9 5 15 23 20 9 13 12 26 32 33 32 31 32 33 34 35 35 35 33 31 29 27 26 26 24 22 20
0 4 1 1 2 4 2 4 4 4 2 4 1 5 2 1 10 11 17 24 36 33 24 14 15 27 29 32 31 32 34 34 34 36 36 34 32 31 30 29 28 27 24 21
3 4 1 1 1 0 2 3 2 4 1 1 3 6 4 1 3 9 19 32 33 39 42 37 9 19 24 28 32 32 32 34 34 35 35 35 34 34 33 31 30 29 27 25
3 3 1 1 2 4 2 4 3 2 2 4 4 5 4 3 5 7 14 24 37 37 44 41 31 8 17 23 27 30 31 33 33 34 35 36 36 35 34 33 34 32 29 27
2 2 3 1 5 6 2 1 4 2 3 3 2 5 5 4 4 7 10 22 34 41 46 41 31 23 11 18 25 29 31 33 35 36 35 36 37 36 35 35 35 34 32 30
1 3 3 8 1 1 2 4 5 3 4 1 1 6 3 6 7 11 22 23 34 44 50 42 35 27 21 15 20 26 30 34 35 36 37 37 36 36 36 37 37 36 35 33
2 1 3 6 2 2 2 3 3 3 2 7 3 5 1 4 14 28 25 34 33 40 47 43 34 25 19 16 16 25 28 31 34 37 38 38 38 38 38 38 37 37 37 36
1 1 5 5 1 1 4 3 4 3 3 5 8 20 17 19 17 23 34 42 44 48 43 37 36 30 20 16 17 17 24 29 32 35 38 39 39 39 39 38 38 38 38 38
4 3 3 6 7 4 7 10 6 8 9 9 13 16 19 14 15 29 34 36 42 42 38 39 41 37 29 20 17 18 18 25 29 34 39 40 40 39 39 39 40 39 40 40
5 4 6 4 7 7 13 12 10 14 14 14 16 24 17 27 26 25 29 32 34 39 40 40 39 39 36 25 20 18 19 21 26 32 36 38 42 42 42 41 41 41 42 43
3 2 4 5 5 17 20 10 17 11 6 9 15 14 13 13 21 26 26 28 30 35 39 41 41 40 35 27 22 21 20 21 22 27 29 34 38 41 43 42 43 44 44 44
5 3 4 9 7 16 5 5 5 5 4 9 9 12 14 19 29 19 22 33 38 43 44 41 39 36 35 28 23 23 23 25 26 27 29 34 36 37 38 42 46 46 46 47
20 6 3 7 10 19 26 20 12 6 2 10 12 16 23 28 26 6 39 42 42 41 43 41 38 35 32 31 26 22 22 23 27 27 27 29 35 38 40 43 43 44 48 48
11 11 7 4 5 6 3 5 11 3 4 12 13 15 21 27 14 14 41 48 48 47 45 44 42 36 32 29 28 24 20 20 22 23 23 24 26 31 37 39 41 42 45 45
2 2 10 11 9 12 7 17 20 10 4 16 20 23 21 9 14 36 44 43 43 45 47 46 44 40 35 32 27 26 23 20 18 18 21 24 27 28 28 30 34 37 39 41
4 3 2 3 4 14 13 7 5 16 21 18 33 37 26 26 26 27 40 42 45 46 45 46 47 44 37 30 29 26 25 20 19 18 17 17 21 24 28 30 30 30 32 35
5 6 4 6 7 27 41 30 32 25 26 33 31 29 34 32 36 33 34 37 42 43 42 43 46 46 41 34 29 29 24 20 19 17 15 14 13 15 19 22 25 29 31 32
5 20 11 13 22 31 37 40 44 37 32 34 29 31 33 42 42 40 36 39 37 40 42 41 46 47 45 39 36 30 25 21 18 15 12 11 11 11 11 14 18 22 26 30
11 6 12 15 26 29 41 44 40 31 33 39 37 36 37 40 44 42 44 39 43 46 44 40 41 47 47 44 42 35 28 24 19 16 14 14 14 14 13 13 14 17 21 24
30 23 13 16 37 28 35 45 49 47 48 49 45 42 41 42 44 44 44 41 40 43 42 39 45 45 48 48 47 42 35 28 25 22 20 19 19 19 18 18 17 18 18 20
Wind_Direction
22 50 231 225 201 176 191 234 268 254 277 267 246 268 273 269 235 241 249 250 248 244 237 230 224 224 225 223 221 220 218 215 213 213 213 215 219 220 220 217 214 216 218 223
14 247 226 211 162 182 196 261 279 279 252 236 298 283 271 266 244 234 241 245 243 239 235 227 223 223 223 224 224 221 219 216 215 216 219 223 224 224 220 217 215 215 216 220
175 226 102 213 205 218 245 226 255 251 319 260 308 290 325 359 301 268 252 252 250 241 235 229 223 223 223 224 222 222 220 218 216 216 218 222 225 224 219 214 213 214 219 221
227 292 264 224 235 153 291 201 237 293 15 308 7 292 310 333 317 291 305 258 247 238 234 232 226 223 223 224 224 224 223 221 218 217 220 223 225 225 217 217 217 218 218 219
256 199 141 279 222 171 229 22 357 1 98 339 358 329 273 330 356 343 334 355 311 264 244 231 226 226 227 224 224 224 223 223 221 221 222 224 227 225 219 219 217 216 216 218
239 264 218 210 118 155 106 0 47 61 85 357 278 139 290 353 339 318 330 336 334 313 278 240 232 225 223 224 224 223 223 222 222 221 223 224 226 223 219 215 215 215 218 220
319 248 295 186 121 55 72 51 317 333 8 232 206 227 256 291 315 303 319 343 5 336 338 277 230 223 219 219 221 222 223 223 222 223 223 223 224 223 220 217 217 217 219 222
277 328 170 326 201 174 119 150 158 286 309 298 58 238 232 328 325 49 33 42 47 36 14 345 240 220 223 220 222 225 225 225 224 223 223 224 224 223 220 217 217 219 221 225
160 278 290 40 102 10 167 172 171 113 78 318 276 282 321 322 332 11 26 33 29 26 26 21 331 221 216 221 225 228 229 227 226 226 225 224 224 222 219 218 219 220 221 223
205 302 16 322 111 43 197 148 93 31 262 279 290 281 248 345 333 341 8 9 7 6 5 9 11 306 234 228 226 228 229 229 229 227 227 227 227 225 223 221 221 222 223 224
121 117 283 104 200 183 123 191 53 116 161 207 299 274 214 245 327 322 335 347 352 349 348 355 3 4 294 252 236 230 230 229 228 227 228 229 228 227 227 225 224 224 224 225
328 152 256 232 169 174 161 207 157 146 217 253 80 275 217 242 272 309 317 327 337 338 337 340 341 335 331 295 248 239 239 235 230 229 230 231 232 230 230 229 227 226 226 226
312 298 343 329 29 41 226 201 149 107 97 195 170 257 270 269 306 321 320 323 329 329 333 333 336 333 326 308 295 257 244 239 236 232 230 231 233 232 232 231 230 228 228 228
54 160 195 210 54 253 270 222 205 178 181 231 232 270 284 302 301 311 315 315 320 324 328 332 336 333 313 299 287 284 259 245 239 235 233 234 234 234 234 234 232 231 230 231
54 296 352 281 278 247 240 250 212 201 235 236 275 272 279 289 293 296 302 309 314 323 328 336 335 334 324 295 277 271 267 255 248 240 236 236 237 237 237 236 235 234 233 233
345 297 352 290 304 319 293 271 243 239 247 256 265 272 278 280 284 298 305 305 315 321 332 335 337 334 329 311 286 270 265 260 252 248 244 241 240 239 238 238 238 236 235 235
244 255 8 273 335 331 296 246 228 233 214 243 257 282 329 355 338 313 310 352 346 338 331 336 338 338 332 319 302 277 262 256 248 245 247 246 245 244 242 241 240 239 237 237
227 186 202 280 317 271 274 113 129 215 15 10 18 16 2 354 329 345 25 357 345 347 348 345 346 344 343 326 310 289 268 260 259 252 248 244 244 244 243 243 242 241 240 240
219 211 250 245 245 281 290 283 297 245 217 27 20 5 351 352 347 357 347 344 339 338 340 344 346 346 345 338 330 318 291 276 265 262 262 257 245 241 241 242 243 243 243 242
206 221 243 243 247 265 273 100 3 16 224 25 19 3 342 345 348 317 329 335 336 336 335 336 341 344 348 341 335 330 321 302 284 274 270 264 261 258 253 251 249 249 249 249
5 293 243 246 250 264 356 328 314 287 344 329 338 325 314 301 289 308 321 324 328 327 328 330 331 336 344 345 333 328 323 324 310 292 275 263 258 258 257 257 255 256 256 255
245 253 273 288 226 264 35 24 24 317 308 296 315 318 313 299 295 304 310 314 320 324 322 323 324 326 331 343 340 327 329 317 315 311 301 285 269 262 259 256 255 254 254 254
272 217 232 228 262 300 303 296 300 301 290 298 303 300 303 301 304 302 299 303 308 315 317 318 319 316 317 326 337 331 325 317 314 312 313 309 293 276 265 261 258 254 250 249
254 250 256 269 267 274 285 294 297 294 287 286 291 296 289 295 298 296 294 298 297 301 309 310 311 311 308 312 320 323 324 312 306 308 312 314 313 309 296 277 264 256 252 250
248 251 247 265 274 275 274 276 285 292 295 291 287 285 285 288 289 289 292 293 299 300 299 299 297 300 301 303 306 310 314 314 295 292 298 306 309 311 309 303 293 281 272 264
253 249 247 255 265 268 278 283 288 291 290 291 292 290 286 285 283 287 285 288 289 289 290 289 291 290 290 293 296 299 301 305 301 290 285 290 295 298 302 304 302 299 293 281